Location: Plum
(40.5000°N, 79.7500°W)
Time: 01:07:54
(UTC-05:00)

Daily predictions for brighter satellites

Satellite Brightness Start Highest point End
(mag) Time Altitude Azimuth Time Altitude Azimuth Time Altitude Azimuth
Cosmos 2237 Rocket 4.0 04:11:34 22° NNE 04:11:34 22° NNE 04:13:32 10° NNE
Cosmos 2333 Rocket 4.4 04:18:06 15° N 04:18:06 15° N 04:19:08 10° NNE
Cosmos 2061 Rocket 4.3 04:16:40 65° SE 04:16:40 65° SE 04:22:15 10° SSE
Atlas Centaur 2 3.6 04:19:19 40° S 04:19:35 40° S 04:27:19 10° ESE
Lacrosse 5 rocket 3.1 04:27:36 32° ESE 04:27:36 32° ESE 04:31:36 10° ENE
Cosmos 2016 Rocket 4.0 04:29:32 54° NNE 04:30:58 77° E 04:37:03 10° SSE
Cosmos 2219 Rocket 4.5 04:35:57 12° N 04:35:57 12° N 04:36:21 10° N
DELTA 2 R/B (1) 3.7 04:36:56 72° ESE 04:36:56 72° ESE 04:41:58 10° E
Cosmos 967 Rocket 4.4 04:40:32 68° NNW 04:40:32 68° NNW 04:46:27 10° NNE
SL-16 R/B 2.2 04:41:38 55° S 04:42:51 77° ESE 04:48:32 10° NNE
Cosmos 1862 Rocket 3.8 04:53:57 55° NNE 04:54:43 68° E 04:59:09 10° SSE
Meteor 1-26 Rocket 4.3 04:53:06 11° N 04:58:28 74° E 05:04:06 10° SSE
Cosmos 1864 Rocket 4.4 04:53:09 10° N 04:59:29 89° W 05:05:42 10° S
CZ-4B R/B 3.2 04:59:05 10° N 05:04:43 65° WNW 05:10:17 10° SSW
Cosmos 2297 3.6 05:06:15 45° NW 05:08:01 73° WSW 05:13:43 10° SSE
Cosmos 2369 Rocket 4.2 05:05:12 10° N 05:09:38 23° NE 05:14:01 10° ESE
Cosmos 1992 Rocket 4.2 05:04:36 10° S 05:09:47 71° ESE 05:15:01 10° NNE
Delta 2 Rocket 4.1 05:09:47 40° S 05:09:49 40° S 05:13:57 10° ESE
Cosmos 2278 Rocket 3.9 05:18:25 16° SW 05:18:25 16° SW 05:19:53 10° SSW
DEBRIS 2.7 05:15:44 61° NE 05:15:44 61° NE 05:17:53 10° ESE
NOAA 6 4.4 05:13:49 10° NNE 05:18:55 65° ESE 05:23:59 10° S
Cosmos 2233 Rocket 4.0 05:14:14 10° N 05:20:24 83° E 05:26:32 10° S
Cosmos 1408 3.6 05:19:33 10° SSE 05:23:09 47° E 05:26:46 10° NNE
SKYMED 2 3.9 05:21:18 10° SSE 05:25:36 67° ENE 05:29:56 10° N
Cosmos 1470 Rocket 4.3 05:27:02 35° NW 05:27:02 35° NW 05:30:02 10° N
IRS-1C Rocket 4.3 05:22:45 10° N 05:27:46 45° WNW 05:32:44 10° SW
Cosmos 1503 Rocket 3.9 05:25:42 28° NNW 05:28:21 63° WSW 05:33:26 10° S
Meteor 1-28 Rocket 3.4 05:29:32 10° S 05:33:05 46° WSW 05:33:05 46° WSW
IDEFIX/ARIANE 42P 3.0 05:31:04 10° NNE 05:36:13 63° E 05:41:20 10° S
USA 229 DEB 3.8 05:31:48 20° NW 05:36:57 68° WSW 05:44:13 10° SSE
USA 229 3.8 05:31:52 20° NW 05:37:03 68° WSW 05:44:19 10° SSE
EO 1 Del DPAF 3.1 05:33:38 10° SSE 05:37:28 84° WSW 05:40:57 13° NNW
Okean-O 2.5 05:33:27 10° NNE 05:37:54 84° WNW 05:42:20 10° SSW
CZ-2C R/B 3.4 05:35:35 10° NNE 05:40:39 52° E 05:45:36 10° S
PAYLOAD A 4.3 05:36:24 10° NNE 05:41:39 77° ESE 05:47:01 10° S
Landsat 4 4.1 05:39:29 10° S 05:42:57 38° W 05:43:26 36° W
Cosmos 968 Rocket 3.7 05:39:52 10° NNW 05:45:09 74° ENE 05:50:25 10° SSE
Hubble Space Telescope 3.2 05:45:45 10° SW 05:48:12 15° S 05:50:38 10° SE
Cosmos 1943 Rocket 3.8 05:47:04 10° N 05:52:07 31° ENE 05:57:07 10° ESE
Cosmos 2237 Rocket 3.9 05:53:27 14° NW 05:53:27 14° NW 05:55:48 10° NNW
Cosmos 1943 4.2 05:47:30 10° S 05:52:59 51° ESE 05:58:29 10° NNE
Cosmos 1703 Rocket 3.4 05:49:26 10° NNW 05:53:48 73° W 05:58:08 10° S
Cosmos 1869 Rocket 3.4 05:54:02 10° S 05:58:23 82° W 06:02:48 10° N
Meteor 1-27 Rocket 4.5 05:56:18 10° N 06:02:06 57° ENE 06:07:43 10° SSE
Intercosmos 25 3.2 06:02:01 10° NNW 06:05:16 59° W 06:09:33 10° S
ATLAS 5 CENTAUR R/B 2.6 06:01:57 10° SSW 06:06:21 54° ESE 06:11:09 10° NE
Lacrosse 5 rocket 2.1 06:03:22 16° WSW 06:06:39 40° NW 06:11:03 10° NNE
Cosmos 1825 2.4 06:04:11 10° SSW 06:07:49 46° W 06:11:29 10° N
Meteor 2-3 Rocket 4.4 06:02:56 10° SW 06:08:04 32° WNW 06:13:11 10° N
Meteor 1-10 Rocket 4.3 06:02:44 10° NNW 06:08:41 76° W 06:14:35 10° S
Atlas Centaur 2 4.2 06:01:57 11° WSW 06:08:42 31° SSW 06:15:57 10° SE
USA 215 3.7 06:05:00 10° NE 06:11:31 68° SE 06:18:00 10° SW
PSLV R/B 3.1 06:09:24 16° WSW 06:11:46 79° S 06:14:58 10° E
COSMO-SKYMED 1 3.2 06:09:48 10° SSW 06:13:44 34° W 06:17:44 10° NNW
BREEZE-M DEB (TANK) 4.5 05:49:48 10° WSW 06:14:04 56° NNW 06:18:38 10° NE
SL-8 R/B 3.7 06:09:45 10° WSW 06:14:32 89° NNW 06:19:20 10° ENE
Cosmos 1484 Rocket 4.0 06:14:07 10° NNE 06:18:01 48° E 06:21:54 10° S
Cosmos 2034 Rocket 4.3 06:11:46 10° N 06:18:02 75° E 06:24:13 10° SSE
DELTA 2 R/B (1) 3.9 06:17:42 13° W 06:22:43 60° SSW 06:28:12 10° ESE
Cosmos 1441 Rocket 3.1 06:22:45 10° NNW 06:26:32 71° W 06:30:14 10° S
SL-16 R/B 3.6 06:23:56 10° W 06:27:38 17° NW 06:31:21 10° N
Cosmos 1606 3.6 06:24:44 10° NNW 06:28:01 28° W 06:31:19 10° SSW
Cosmos 2084 Rocket 4.5 06:25:40 12° WNW 06:28:27 24° WSW 06:31:35 10° S
Cosmos 1782 3.7 06:28:02 10° NNW 06:31:27 28° W 06:34:50 10° SSW
Cosmos 1603 4.1 06:26:36 10° SW 06:31:54 41° WNW 06:37:16 10° N
USA 267 4.3 06:36:44 10° E 06:42:39 38° NNE 06:48:35 10° NW
CSL-04 Debris 4.4 06:37:53 10° NNE 06:43:18 81° ESE 06:48:41 10° SSW
Cosmos 1464 Rocket 4.3 06:41:52 10° NNW 06:47:48 47° W 06:53:47 10° SSW
